Regional Weather Roundup
Issued by NWS

Home | Current Version | Previous Version | Graphics & Text | Print | Product List | Glossary On
Versions: 1 2 3 4 5 6 7 8 9 10 11 12 13 14 15 16 17 18 19 20 21 22 23 24 25 26 27 28 29 30 31 32 33 34 35 36 37 38 39 40 41 42 43 44 45 46 47 48 49 50
000
ASUS45 KBOU 270907
RWRCO

WEATHER ROUNDUP FOR COLORADO
NATIONAL WEATHER SERVICE DENVER/BOULDER CO
300 AM MDT FRI MAR 27 2015

NOTE: "FAIR" INDICATES FEW OR NO CLOUDS BELOW 12000 FEET WITH NO
SIGNIFICANT WEATHER AND/OR OBSTRUCTIONS TO VISIBILITY.

COZ001>005-013-030-031-271000-
...NORTHWEST COLORADO...

CITY           SKY/WX    TMP DP  RH WIND       PRES   REMARKS
CRAIG          CLEAR     33  27  78 E3        30.33S
HAYDEN         CLEAR     37  27  65 S3        30.33S
MEEKER         CLEAR     31  24  75 E5        30.34S WCI  26
MOUNT WERNER   NOT AVBL
STEAMBOAT SPGS NOT AVBL
WALDEN         PTCLDY    30  25  80 E7        30.31S WCI  23
$$

COZ006>008-011-271000-
...WEST CENTRAL VALLEYS...

CITY           SKY/WX    TMP DP  RH WIND       PRES   REMARKS
GRAND JUNCTION CLEAR     39  21  48 E6        30.29R
MONTROSE       CLEAR     39  23  52 S9        30.34S
EAGLE          CLEAR     36  27  69 E7        30.35S
RIFLE          CLEAR     36  24  62 CALM      30.33S
DELTA          CLEAR     40  22  49 E5        30.32S
NUCLA          CLEAR     36  21  55 SE5       30.37R
$$

COZ017>023-064>068-271000-
...SOUTHWEST COLORADO...

CITY           SKY/WX    TMP DP  RH WIND       PRES   REMARKS
DURANGO        CLEAR     30  21  69 NE5       30.31S WCI  25
CORTEZ         CLEAR     32  19  58 E9        30.33S WCI  24
PAGOSA SPRINGS CLEAR     32  18  56 CALM      30.34S
TELLURIDE      NOT AVBL
WOLF CREEK PAS PTCLDY    27  14  59 CALM      30.47F
$$

COZ009-010-012-014-032>034-037-058>063-271000-
...CENTRAL COLORADO...

CITY           SKY/WX    TMP DP  RH WIND       PRES   REMARKS
ASPEN          CLEAR     31  24  75 S6        30.35S WCI  25
BUENA VISTA    CLEAR     33  22  64 NW7       30.29S WCI  27
COPPER MTN     NOT AVBL
BERTHOUD PASS  CLOUDY    21  14  73 NW30G39   30.38R HAZE    WCI   3
COTTONWOOD PAS CLEAR     41  19  42 W14G26    30.34R
GUNNISON       CLEAR     28  19  69 CALM      30.39S
KREMMLING      PTCLDY    34  28  80 NW10      30.33F WCI  26
LEADVILLE      CLEAR     29  18  63 N10       30.36S WCI  20
SALIDA         CLEAR     39  21  48 NW3       30.35S
SUNLIGHT       CLEAR     32  19  59 SW3         N/A
WILKERSON PASS CLEAR     30  19  64 W8G18     30.38F WCI  23
$$

COZ069>075-271000-
...SAN LUIS VALLEY/SANGRE DE CRISTO MOUNTAINS...

CITY           SKY/WX    TMP DP  RH WIND       PRES   REMARKS
ALAMOSA        PTCLDY    31  16  54 W3        30.30F
LA VETA PASS   PTCLDY    32  18  55 SW5       30.34S WCI  27
SAGUACHE       CLEAR     36  19  51 NE10      30.32S
$$

COZ035-036-038>040-271000-
...NORTHERN COLORADO FRONT RANGE...

CITY           SKY/WX    TMP DP  RH WIND       PRES   REMARKS
DENVER INTL AP MOCLDY    41  31  67 SW8       30.16S
DMNS CITY PARK   N/A     44  28  52 W2        30.17S
AURORA         CLOUDY    43  31  64 W6        30.18R
FRONT RANGE AP NOT AVBL
ERIE MUNI ARPT NOT AVBL
BOULDER MUN AP NOT AVBL
CENTENNIAL     MOCLDY    42  32  67 SW9       30.17F
BROOMFIELD     PTCLDY    43  28  56 N5        30.18R
FORT COLLINS   PTCLDY    39  27  60 W3        30.18F
LONGMONT       NOT AVBL
$$

COZ041-046-047-076>085-087-088-271000-
...PIKES PEAK/PALMER DIVIDE AND SOUTHERN FOOTHILLS...

CITY           SKY/WX    TMP DP  RH WIND       PRES   REMARKS
COLO. SPRINGS  PTCLDY    39  23  52 NE8       30.21S
A. F. ACADEMY  PTCLDY    33  26  75 N7        30.20S WCI  27
ELLICOTT       PTCLDY   N/A N/A N/A SE10      30.19F
FALCON         NOT AVBL
FORT CARSON    CLEAR     36  25  64 N2        30.19S
LIMON          CLOUDY    41  30  65 SW6       30.17F
MONUMENT HILL  CLOUDY    41  27  56 SW6       30.20F
TRINIDAD       CLEAR     41  25  53 NW7       30.19F
$$

COZ042>045-048>051-090-091-271000-
...NORTHEAST COLORADO...

CITY           SKY/WX    TMP DP  RH WIND       PRES   REMARKS
GREELEY ARPT   MOCLDY    41  28  60 NW3       30.15F
AKRON          CLOUDY    36  34  92 E8        30.16R
BURLINGTON     CLOUDY    38  30  73 E6        30.16F
WRAY           CLOUDY    38  31  73 E7        30.17F
STERLING       NOT AVBL
HOLYOKE        NOT AVBL
FORT MORGAN    CLOUDY    42  32  67 W6        30.16S
$$

COZ086-089-092>099-271000-
...SOUTHEAST COLORADO...

CITY           SKY/WX    TMP DP  RH WIND       PRES   REMARKS
PUEBLO         CLEAR     35  29  78 N5        30.17S WCI  31
LA JUNTA       CLEAR     39  25  57 E5        30.17F
LAMAR          CLEAR     30  26  85 SW3       30.16F
SPRINGFIELD      N/A     33  27  78 W6        30.18F WCI  28
$$



USA.gov is the U.S. government's official web portal to all federal, state and local government web resources and services.